STARLINK-5685, 55477

Orbit data source: Space-Track

STARLINK-5685, 55477 is a payload satellite owned by SpaceX/Seattle (US) in LEO that was launched on Thu, 02 Feb 2023 UTC via an FALCON 9 launch vehicle from the Air Force Eastern Test Range (AFETR). Payload-class satellites include a variety of spacecraft equipped with specific instruments for various scientific and technological missions. These include communications satellites like Starlink; space stations such as the ISS; scientific satellites like the Hubble; Earth observation satellites from companies like Planet Labs, Umbra, and HawkEye 360; GPS; miniature CubeSats for education and research; and military/defense satellites.

Loading next visibility...
Identifier
55477, 2023-015AE
Orbit
LEO
Country
Flag of USUS
Related business
Manufacturer
SpaceX/Seattle
Mission
Operational Commercial Communications
Bus & Motor
STARLINK, Unknown motor
Mass
305 kg wet, ~290 kg dry
Launch date (UTC)
2023-02-02 (3 years ago)
Launch vehicle
FALCON 9
Launch site
Air Force Eastern Test Range (AFETR)
Object type
Payload
Rocket body
Debris
Shape & HBR
Box + 1 Pan, 10.1 m
Radar Cross Section
13.562 m², Large (>1 m²)

Expand to show TLE details & history
Last TLE update: 14 hours ago

TLE from 14 hours ago
0 STARLINK-5685
1 55477U 23015AE  26125.35355205  .00000302  00000-0  21392-4 0  9999
2 55477  43.0015   1.1994 0001741 263.6415  96.4238 15.25914437179478
Epoch: 2026-05-05T08:29Z
TLE epoch observation values (Epoch: 2026-05-05T08:29:06.897Z)
Latitude
0.00001°
Longitude
10.69106°
Altitude
487.951 km
Speed
7.623 km/s
True Right ascension
00h 04m 47s
True Declination
0° 00' 00"
Sunlit
Object was in daylight at epoch
Visualization orbit readout
Latitude
Unknown
Longitude
Unknown
Altitude
Unknown
Speed
Unknown
Apparent Right ascension
Unknown
Apparent Declination
Unknown
Sunlit
N/A
Visualization observer readout
Local Sidereal Time
06:26:05
Azimuth
Unknown
Elevation
Unknown
Doppler factor
Unknown
Orbital elements
Apogee altitude
491.18 km
Perigee altitude
488.789 km
Semi-major axis
6,868.121 km
Eccentricity
0.00017
Inclination
43.0015°
RAAN
1.1994°
Arg. of periapsis
263.6415°
True anomaly
96.44362°
Mean anomaly
96.4238°
Eccentric anomaly
96.43371°
Mean motion
3.81317 °/min
Orbital period
94.41 mins
BSTAR
0.000021392
Loading maneuver chart data...
Computing Atmospheric mass density...
Loading historical data...
Loading historical data...
Loading historical data...
Loading historical data...
Loading historical data...
Loading historical data...
Loading historical data...

Documentation

Showing up to 5 results
|